Location: Alafon
(8.4500°N, 4.2333°E)
Time: 01:34:46
(UTC+00:00)

Cosmos 2227 Rocket - Pass Details

Date: 05 July 2020
Orbit: 839 x 845 km, 71.0° (Epoch: 06 August)

Event Time Altitude Azimuth Distance (km) Brightness Sun altitude
Rises 18:41:18 0° 345° (NNW) 3,388 6.0 -8.9°
Reaches altitude 10° 18:43:44 10° 345° (NNW) 2,453 5.2 -9.4°
Maximum altitude 18:49:23 88° 76° (ENE) 844 2.2 -10.7°
Drops below altitude 10° 18:55:01 10° 164° (SSE) 2,450 4.2 -11.9°
Enters shadow 18:56:40 - 164° (SSE) 3,081 4.7 -12.3°
